Terminal Aerodrome Forecast
Issued by NWS Tiyan, Guam

Home | Current Version | Previous Version | Text Only | Print | Product List | Glossary On
Versions: 1 2 3 4 5 6 7 8 9 10 11 12 13 14 15 16 17 18 19 20 21 22 23 24 25
000
FTPQ31 PGUM 251100
TAFPQ
TAF
PGUM 251133Z 2512/2618 07010KT P6SM VCSH FEW020 SCT050
     FM260000 08013G23KT P6SM VCSH SCT018 SCT050=

USA.gov is the U.S. government's official web portal to all federal, state and local government web resources and services.